Location: ?????
(55.8833°N, 37.6500°E)
Time: 23:20:04
(UTC+00:00)

STARLINK-1048 - Pass Details

Date: 27 February 2020
Orbit: 549 x 551 km, 53.0° (Epoch: 04 April)

Event Time Altitude Azimuth Distance (km) Brightness Sun altitude
Rises 17:12:46 0° 271° (W) 2,724 8.6 -19.5°
Reaches altitude 10° 17:15:02 10° 267° (W) 1,830 7.3 -19.8°
Maximum altitude 17:19:05 53° 191° (S) 681 4.0 -20.4°
Enters shadow 17:19:40 48° 159° (SSE) 724 3.9 -20.4°
